"Sample Date","Sample Time","Sample Value","Units","Flow Rate","Sample Interval","Number Channels","Micron Size 0","Counts/Channel 0","Micron Size 1","Counts/Channel 1","Micron Size 2","Counts/Channel 2","Micron Size 3","Counts/Channel 3","Micron Size 4","Counts/Channel 4","Micron Size 5","Counts/Channel 5","Micron Size 6","Counts/Channel 6","Micron Size 7","Counts/Channel 7","Micron Size 8","Counts/Channel 8","Micron Size 9","Counts/Channel 9","Micron Size 10","Counts/Channel 10","Micron Size 11","Counts/Channel 11","Micron Size 12","Counts/Channel 12","Micron Size 13","Counts/Channel 13","Micron Size 14","Counts/Channel 14","Micron Size 15","Counts/Channel 15","Micron Size 16","Counts/Channel 16","Micron Size 17","Counts/Channel 17","Micron Size 18","Counts/Channel 18","Micron Size 19","Counts/Channel 19","Micron Size 20","Counts/Channel 20","Micron Size 21","Counts/Channel 21","Micron Size 22","Counts/Channel 22","Micron Size 23","Counts/Channel 23","Micron Size 24","Counts/Channel 24","Micron Size 25","Counts/Channel 25","Micron Size 26","Counts/Channel 26","Micron Size 27","Counts/Channel 27","Micron Size 28","Counts/Channel 28","Micron Size 29","Counts/Channel 29","Micron Size 30","Counts/Channel 30","Micron Size 31","Counts/Channel 31"
"04/06/08","19:00:01",21991.000,"cc",28296.684,6.00,6,0.100,15196.000,0.200,2573.000,0.300,1725.000,0.500,1893.000,1.000,604.000,5.000,0
"04/06/08","19:00:07",24119.000,"cc",28302.008,6.00,6,0.100,15789.000,0.200,2941.000,0.300,2209.000,0.500,2405.000,1.000,775.000,5.000,0
"04/06/08","19:00:13",22262.000,"cc",28268.006,6.00,6,0.100,15209.000,0.200,2650.000,0.300,1820.000,0.500,1877.000,1.000,706.000,5.000,0
"04/06/08","19:00:19",22689.000,"cc",28332.418,6.00,6,0.100,15473.000,0.200,2574.000,0.300,1943.000,0.500,2067.000,1.000,632.000,5.000,0
"04/06/08","19:00:25",23165.000,"cc",28366.045,6.00,6,0.100,15743.000,0.200,2742.000,0.300,1957.000,0.500,2120.000,1.000,603.000,5.000,0
"04/06/08","19:00:31",25259.000,"cc",28355.350,6.00,6,0.100,16360.000,0.200,3311.000,0.300,2324.000,0.500,2448.000,1.000,816.000,5.000,0
"04/06/08","19:00:37",24058.000,"cc",28391.092,6.00,6,0.100,15839.000,0.200,2959.000,0.300,2178.000,0.500,2297.000,1.000,785.000,5.000,0
"04/06/08","19:00:43",23798.000,"cc",28322.213,6.00,6,0.100,15973.000,0.200,2882.000,0.300,2007.000,0.500,2182.000,1.000,754.000,5.000,0
"04/06/08","19:00:49",23439.000,"cc",28340.877,6.00,6,0.100,15702.000,0.200,2870.000,0.300,2003.000,0.500,2165.000,1.000,699.000,5.000,0
"04/06/08","19:00:55",22938.000,"cc",28275.291,6.00,6,0.100,15260.000,0.200,2782.000,0.300,1979.000,0.500,2227.000,1.000,690.000,5.000,0
"04/06/08","19:01:01",23187.000,"cc",28302.070,6.00,6,0.100,15616.000,0.200,2777.000,0.300,1934.000,0.500,2213.000,1.000,647.000,5.000,0
"04/06/08","19:01:07",22734.000,"cc",28372.426,6.00,6,0.100,15319.000,0.200,2707.000,0.300,1944.000,0.500,2127.000,1.000,637.000,5.000,0
"04/06/08","19:01:13",22448.000,"cc",28192.461,6.00,6,0.100,15145.000,0.200,2629.000,0.300,1957.000,0.500,2062.000,1.000,655.000,5.000,0
"04/06/08","19:01:19",23173.000,"cc",28239.086,6.00,6,0.100,15596.000,0.200,2816.000,0.300,1965.000,0.500,2148.000,1.000,648.000,5.000,0
"04/06/08","19:01:25",24070.000,"cc",28381.606,6.00,6,0.100,15882.000,0.200,2917.000,0.300,2181.000,0.500,2342.000,1.000,748.000,5.000,0
"04/06/08","19:01:31",23343.000,"cc",28366.109,6.00,6,0.100,15725.000,0.200,2820.000,0.300,1946.000,0.500,2154.000,1.000,698.000,5.000,0
"04/06/08","19:01:37",33603.000,"cc",28217.252,6.00,6,0.100,18295.000,0.200,5295.000,0.300,4013.000,0.500,4424.000,1.000,1576.000,5.000,0
"04/06/08","19:01:43",28432.000,"cc",28314.732,6.00,6,0.100,17239.000,0.200,3980.000,0.300,3009.000,0.500,3081.000,1.000,1123.000,5.000,0
"04/06/08","19:01:49",23539.000,"cc",28334.293,6.00,6,0.100,15749.000,0.200,2936.000,0.300,2013.000,0.500,2142.000,1.000,699.000,5.000,0
"04/06/08","19:01:55",23183.000,"cc",28332.572,6.00,6,0.100,15684.000,0.200,2748.000,0.300,1945.000,0.500,2137.000,1.000,669.000,5.000,0
"04/06/08","19:02:01",23000.000,"cc",28376.092,6.00,6,0.100,15250.000,0.200,2799.000,0.300,2087.000,0.500,2182.000,1.000,682.000,5.000,0
"04/06/08","19:02:07",21779.000,"cc",28207.916,6.00,6,0.100,14835.000,0.200,2685.000,0.300,1857.000,0.500,1839.000,1.000,563.000,5.000,0
"04/06/08","19:02:13",22181.000,"cc",28247.711,6.00,6,0.100,15180.000,0.200,2679.000,0.300,1747.000,0.500,1963.000,1.000,612.000,5.000,0
"04/06/08","19:02:19",22513.000,"cc",28342.647,6.00,6,0.100,15206.000,0.200,2708.000,0.300,1974.000,0.500,2007.000,1.000,618.000,5.000,0
"04/06/08","19:02:25",22369.000,"cc",28382.520,6.00,6,0.100,15012.000,0.200,2776.000,0.300,1933.000,0.500,2057.000,1.000,591.000,5.000,0
"04/06/08","19:02:31",23121.000,"cc",28305.117,6.00,6,0.100,15571.000,0.200,2864.000,0.300,2032.000,0.500,2028.000,1.000,626.000,5.000,0
"04/06/08","19:02:37",22966.000,"cc",28347.607,6.00,6,0.100,15425.000,0.200,2788.000,0.300,1935.000,0.500,2158.000,1.000,660.000,5.000,0
"04/06/08","19:02:43",22226.000,"cc",28288.033,6.00,6,0.100,15117.000,0.200,2641.000,0.300,1898.000,0.500,2002.000,1.000,568.000,5.000,0
"04/06/08","19:02:49",22688.000,"cc",28326.367,6.00,6,0.100,15275.000,0.200,2795.000,0.300,1915.000,0.500,2054.000,1.000,649.000,5.000,0
"04/06/08","19:02:55",29117.000,"cc",28347.084,6.00,6,0.100,17105.000,0.200,4224.000,0.300,3082.000,0.500,3522.000,1.000,1184.000,5.000,0
"04/06/08","19:03:01",24820.000,"cc",28332.041,6.00,6,0.100,16163.000,0.200,3212.000,0.300,2227.000,0.500,2428.000,1.000,790.000,5.000,0
"04/06/08","19:03:07",23196.000,"cc",28360.170,6.00,6,0.100,15532.000,0.200,2785.000,0.300,2111.000,0.500,2123.000,1.000,645.000,5.000,0
"04/06/08","19:03:13",22986.000,"cc",28298.793,6.00,6,0.100,15273.000,0.200,2836.000,0.300,2038.000,0.500,2205.000,1.000,634.000,5.000,0
"04/06/08","19:03:19",23619.000,"cc",28278.514,6.00,6,0.100,15575.000,0.200,3075.000,0.300,2121.000,0.500,2165.000,1.000,683.000,5.000,0
"04/06/08","19:03:25",22995.000,"cc",28309.334,6.00,6,0.100,15239.000,0.200,2924.000,0.300,2014.000,0.500,2119.000,1.000,699.000,5.000,0
"04/06/08","19:03:31",22966.000,"cc",28321.795,6.00,6,0.100,15453.000,0.200,2774.000,0.300,1950.000,0.500,2137.000,1.000,652.000,5.000,0
"04/06/08","19:03:37",22634.000,"cc",28311.109,6.00,6,0.100,15188.000,0.200,2851.000,0.300,1958.000,0.500,2024.000,1.000,613.000,5.000,0
"04/06/08","19:03:43",23406.000,"cc",28301.609,6.00,6,0.100,15583.000,0.200,2914.000,0.300,2038.000,0.500,2243.000,1.000,628.000,5.000,0
"04/06/08","19:03:49",23161.000,"cc",28322.010,6.00,6,0.100,15352.000,0.200,2866.000,0.300,2128.000,0.500,2176.000,1.000,639.000,5.000,0
"04/06/08","19:03:55",22269.000,"cc",28308.875,6.00,6,0.100,15021.000,0.200,2747.000,0.300,1841.000,0.500,2010.000,1.000,650.000,5.000,0
"04/06/08","19:04:01",21289.000,"cc",28325.438,6.00,6,0.100,14495.000,0.200,2539.000,0.300,1817.000,0.500,1911.000,1.000,527.000,5.000,0
"04/06/08","19:04:07",22082.000,"cc",28320.857,6.00,6,0.100,14978.000,0.200,2616.000,0.300,1864.000,0.500,2026.000,1.000,598.000,5.000,0
"04/06/08","19:04:13",22393.000,"cc",28296.570,6.00,6,0.100,15063.000,0.200,2745.000,0.300,1883.000,0.500,2060.000,1.000,642.000,5.000,0
"04/06/08","19:04:19",22182.000,"cc",28327.582,6.00,6,0.100,15047.000,0.200,2697.000,0.300,1830.000,0.500,2011.000,1.000,597.000,5.000,0
"04/06/08","19:04:25",22571.000,"cc",28301.344,6.00,6,0.100,15137.000,0.200,2715.000,0.300,1949.000,0.500,2118.000,1.000,652.000,5.000,0
"04/06/08","19:04:31",23242.000,"cc",28313.031,6.00,6,0.100,15595.000,0.200,2818.000,0.300,1990.000,0.500,2187.000,1.000,652.000,5.000,0
"04/06/08","19:04:37",23328.000,"cc",28375.055,6.00,6,0.100,15500.000,0.200,2983.000,0.300,2069.000,0.500,2131.000,1.000,644.000,5.000,1.000
"04/06/08","19:04:43",23574.000,"cc",28363.221,6.00,6,0.100,15620.000,0.200,3060.000,0.300,1991.000,0.500,2201.000,1.000,702.000,5.000,0
"04/06/08","19:04:49",23064.000,"cc",28282.701,6.00,6,0.100,15620.000,0.200,2804.000,0.300,1939.000,0.500,2088.000,1.000,613.000,5.000,0
"04/06/08","19:04:55",23187.000,"cc",28234.020,6.00,6,0.100,15553.000,0.200,2907.000,0.300,1919.000,0.500,2171.000,1.000,637.000,5.000,0
"04/06/08","19:05:01",23577.000,"cc",28248.584,6.00,6,0.100,15830.000,0.200,2934.000,0.300,2012.000,0.500,2155.000,1.000,646.000,5.000,0
"04/06/08","19:05:07",24317.000,"cc",28363.662,6.00,6,0.100,16453.000,0.200,2938.000,0.300,2105.000,0.500,2161.000,1.000,660.000,5.000,0
"04/06/08","19:05:13",24509.000,"cc",28360.928,6.00,6,0.100,16549.000,0.200,2971.000,0.300,2111.000,0.500,2168.000,1.000,710.000,5.000,0
"04/06/08","19:05:19",24168.000,"cc",28398.232,6.00,6,0.100,16269.000,0.200,2945.000,0.300,2031.000,0.500,2237.000,1.000,686.000,5.000,0
"04/06/08","19:05:25",24576.000,"cc",28202.764,6.00,6,0.100,16330.000,0.200,3069.000,0.300,2164.000,0.500,2275.000,1.000,738.000,5.000,0
"04/06/08","19:05:31",24581.000,"cc",28287.490,6.00,6,0.100,16371.000,0.200,3076.000,0.300,2147.000,0.500,2263.000,1.000,724.000,5.000,0
"04/06/08","19:05:37",24765.000,"cc",28352.881,6.00,6,0.100,16424.000,0.200,3067.000,0.300,2217.000,0.500,2350.000,1.000,707.000,5.000,0
"04/06/08","19:05:43",24530.000,"cc",28279.041,6.00,6,0.100,16331.000,0.200,3103.000,0.300,2167.000,0.500,2240.000,1.000,689.000,5.000,0
"04/06/08","19:05:49",25016.000,"cc",28325.875,6.00,6,0.100,16586.000,0.200,3174.000,0.300,2197.000,0.500,2313.000,1.000,746.000,5.000,0
"04/06/08","19:05:55",24738.000,"cc",28275.762,6.00,6,0.100,16598.000,0.200,3002.000,0.300,2147.000,0.500,2267.000,1.000,724.000,5.000,0
"04/06/08","19:06:01",24505.000,"cc",28257.357,6.00,6,0.100,16453.000,0.200,2897.000,0.300,2111.000,0.500,2314.000,1.000,730.000,5.000,0
"04/06/08","19:06:07",25346.000,"cc",28354.570,6.00,6,0.100,16727.000,0.200,3223.000,0.300,2290.000,0.500,2392.000,1.000,714.000,5.000,0
"04/06/08","19:06:13",25604.000,"cc",28299.451,6.00,6,0.100,16544.000,0.200,3336.000,0.300,2361.000,0.500,2534.000,1.000,829.000,5.000,0
"04/06/08","19:06:19",25155.000,"cc",28323.504,6.00,6,0.100,16784.000,0.200,3114.000,0.300,2155.000,0.500,2365.000,1.000,737.000,5.000,0
"04/06/08","19:06:25",24833.000,"cc",28258.516,6.00,6,0.100,16465.000,0.200,3119.000,0.300,2160.000,0.500,2381.000,1.000,708.000,5.000,0
"04/06/08","19:06:31",25770.000,"cc",28385.199,6.00,6,0.100,16983.000,0.200,3223.000,0.300,2271.000,0.500,2475.000,1.000,818.000,5.000,0
"04/06/08","19:06:37",25450.000,"cc",28380.023,6.00,6,0.100,16672.000,0.200,3195.000,0.300,2326.000,0.500,2470.000,1.000,787.000,5.000,0
"04/06/08","19:06:43",25148.000,"cc",28228.383,6.00,6,0.100,16708.000,0.200,3202.000,0.300,2118.000,0.500,2360.000,1.000,760.000,5.000,0
"04/06/08","19:06:49",25579.000,"cc",28285.961,6.00,6,0.100,16851.000,0.200,3194.000,0.300,2270.000,0.500,2464.000,1.000,800.000,5.000,0
"04/06/08","19:06:55",25368.000,"cc",28333.106,6.00,6,0.100,16757.000,0.200,3146.000,0.300,2275.000,0.500,2421.000,1.000,769.000,5.000,0
"04/06/08","19:07:01",25637.000,"cc",28335.936,6.00,6,0.100,16795.000,0.200,3256.000,0.300,2305.000,0.500,2516.000,1.000,765.000,5.000,0
"04/06/08","19:07:07",25616.000,"cc",28330.258,6.00,6,0.100,16895.000,0.200,3114.000,0.300,2246.000,0.500,2522.000,1.000,839.000,5.000,0
"04/06/08","19:07:13",25765.000,"cc",28289.115,6.00,6,0.100,16887.000,0.200,3261.000,0.300,2353.000,0.500,2461.000,1.000,803.000,5.000,0
"04/06/08","19:07:19",25509.000,"cc",28295.057,6.00,6,0.100,16645.000,0.200,3270.000,0.300,2324.000,0.500,2518.000,1.000,752.000,5.000,0
"04/06/08","19:07:25",26090.000,"cc",28372.420,6.00,6,0.100,16805.000,0.200,3397.000,0.300,2438.000,0.500,2603.000,1.000,847.000,5.000,0
"04/06/08","19:07:31",26335.000,"cc",28319.031,6.00,6,0.100,16976.000,0.200,3394.000,0.300,2448.000,0.500,2650.000,1.000,867.000,5.000,0
"04/06/08","19:07:37",26731.000,"cc",28340.897,6.00,6,0.100,17248.000,0.200,3450.000,0.300,2483.000,0.500,2677.000,1.000,873.000,5.000,0
"04/06/08","19:07:43",26648.000,"cc",28318.598,6.00,6,0.100,17436.000,0.200,3440.000,0.300,2404.000,0.500,2540.000,1.000,828.000,5.000,0
"04/06/08","19:07:49",26553.000,"cc",28321.656,6.00,6,0.100,17040.000,0.200,3527.000,0.300,2504.000,0.500,2610.000,1.000,872.000,5.000,0
"04/06/08","19:07:55",27221.000,"cc",28318.891,6.00,6,0.100,17354.000,0.200,3572.000,0.300,2576.000,0.500,2794.000,1.000,925.000,5.000,0
"04/06/08","19:08:01",27006.000,"cc",28329.383,6.00,6,0.100,17551.000,0.200,3504.000,0.300,2447.000,0.500,2632.000,1.000,872.000,5.000,0
"04/06/08","19:08:07",26615.000,"cc",28340.775,6.00,6,0.100,17324.000,0.200,3326.000,0.300,2379.000,0.500,2709.000,1.000,877.000,5.000,0
"04/06/08","19:08:13",26228.000,"cc",28350.361,6.00,6,0.100,17030.000,0.200,3268.000,0.300,2460.000,0.500,2610.000,1.000,860.000,5.000,0
"04/06/08","19:08:19",26122.000,"cc",28269.119,6.00,6,0.100,17256.000,0.200,3223.000,0.300,2371.000,0.500,2427.000,1.000,845.000,5.000,0
"04/06/08","19:08:25",26235.000,"cc",28257.789,6.00,6,0.100,17158.000,0.200,3344.000,0.300,2306.000,0.500,2578.000,1.000,849.000,5.000,0
"04/06/08","19:08:31",26371.000,"cc",28350.301,6.00,6,0.100,17208.000,0.200,3351.000,0.300,2360.000,0.500,2562.000,1.000,890.000,5.000,0
"04/06/08","19:08:37",26578.000,"cc",28327.438,6.00,6,0.100,17259.000,0.200,3448.000,0.300,2374.000,0.500,2605.000,1.000,892.000,5.000,0
"04/06/08","19:08:43",26741.000,"cc",28382.332,6.00,6,0.100,17359.000,0.200,3370.000,0.300,2395.000,0.500,2745.000,1.000,872.000,5.000,0
"04/06/08","19:08:49",26712.000,"cc",28322.211,6.00,6,0.100,17322.000,0.200,3367.000,0.300,2417.000,0.500,2742.000,1.000,864.000,5.000,0
"04/06/08","19:08:55",30457.000,"cc",28238.754,6.00,6,0.100,18821.000,0.200,4146.000,0.300,3043.000,0.500,3391.000,1.000,1056.000,5.000,0
"04/06/08","19:09:01",32877.000,"cc",28324.654,6.00,6,0.100,19640.000,0.200,4909.000,0.300,3465.000,0.500,3599.000,1.000,1264.000,5.000,0
"04/06/08","19:09:07",28087.000,"cc",28330.023,6.00,6,0.100,17948.000,0.200,3695.000,0.300,2589.000,0.500,2863.000,1.000,992.000,5.000,0
"04/06/08","19:09:13",27700.000,"cc",28377.760,6.00,6,0.100,17717.000,0.200,3667.000,0.300,2604.000,0.500,2814.000,1.000,898.000,5.000,0
"04/06/08","19:09:19",27284.000,"cc",28236.688,6.00,6,0.100,17855.000,0.200,3485.000,0.300,2417.000,0.500,2622.000,1.000,905.000,5.000,0
"04/06/08","19:09:25",27514.000,"cc",28331.654,6.00,6,0.100,17869.000,0.200,3562.000,0.300,2443.000,0.500,2749.000,1.000,891.000,5.000,0
"04/06/08","19:09:31",27751.000,"cc",28351.824,6.00,6,0.100,17954.000,0.200,3539.000,0.300,2560.000,0.500,2731.000,1.000,967.000,5.000,0
"04/06/08","19:09:37",29153.000,"cc",28340.795,6.00,6,0.100,18604.000,0.200,3869.000,0.300,2730.000,0.500,2929.000,1.000,1021.000,5.000,0
"04/06/08","19:09:43",29565.000,"cc",28270.340,6.00,6,0.100,18723.000,0.200,4006.000,0.300,2834.000,0.500,3037.000,1.000,965.000,5.000,0
"04/06/08","19:09:49",27848.000,"cc",28300.613,6.00,6,0.100,18023.000,0.200,3716.000,0.300,2476.000,0.500,2725.000,1.000,908.000,5.000,0
"04/06/08","19:09:55",27952.000,"cc",28249.160,6.00,6,0.100,18030.000,0.200,3651.000,0.300,2486.000,0.500,2840.000,1.000,945.000,5.000,0
"04/06/08","19:10:01",27838.000,"cc",28328.408,6.00,6,0.100,17972.000,0.200,3555.000,0.300,2604.000,0.500,2789.000,1.000,918.000,5.000,0
"04/06/08","19:10:07",27504.000,"cc",28327.127,6.00,6,0.100,17897.000,0.200,3531.000,0.300,2526.000,0.500,2629.000,1.000,921.000,5.000,0
"04/06/08","19:10:13",27127.000,"cc",28292.703,6.00,6,0.100,17594.000,0.200,3500.000,0.300,2556.000,0.500,2580.000,1.000,897.000,5.000,0
"04/06/08","19:10:19",41635.000,"cc",28483.875,6.00,6,0.100,21869.000,0.200,6878.000,0.300,5283.000,0.500,5602.000,1.000,2003.000,5.000,0
"04/06/08","19:10:25",31586.000,"cc",28234.479,6.00,6,0.100,19475.000,0.200,4423.000,0.300,3109.000,0.500,3458.000,1.000,1121.000,5.000,0
"04/06/08","19:10:31",27440.000,"cc",28386.982,6.00,6,0.100,17941.000,0.200,3527.000,0.300,2414.000,0.500,2672.000,1.000,886.000,5.000,0
"04/06/08","19:10:37",27134.000,"cc",28219.525,6.00,6,0.100,17569.000,0.200,3481.000,0.300,2514.000,0.500,2680.000,1.000,890.000,5.000,0
"04/06/08","19:10:43",27260.000,"cc",28225.545,6.00,6,0.100,17676.000,0.200,3571.000,0.300,2473.000,0.500,2647.000,1.000,893.000,5.000,0
"04/06/08","19:10:49",27677.000,"cc",28399.092,6.00,6,0.100,17914.000,0.200,3521.000,0.300,2459.000,0.500,2816.000,1.000,967.000,5.000,0
"04/06/08","19:10:55",27581.000,"cc",28304.262,6.00,6,0.100,17843.000,0.200,3577.000,0.300,2534.000,0.500,2730.000,1.000,897.000,5.000,0
"04/06/08","19:11:01",27456.000,"cc",28266.563,6.00,6,0.100,17819.000,0.200,3540.000,0.300,2460.000,0.500,2720.000,1.000,917.000,5.000,0
"04/06/08","19:11:07",27935.000,"cc",28345.379,6.00,6,0.100,17992.000,0.200,3623.000,0.300,2579.000,0.500,2786.000,1.000,955.000,5.000,0
"04/06/08","19:11:13",28255.000,"cc",28328.463,6.00,6,0.100,18151.000,0.200,3664.000,0.300,2585.000,0.500,2903.000,1.000,952.000,5.000,0
"04/06/08","19:11:19",29107.000,"cc",28365.584,6.00,6,0.100,18428.000,0.200,3845.000,0.300,2773.000,0.500,3007.000,1.000,1054.000,5.000,0
"04/06/08","19:11:25",28510.000,"cc",28268.893,6.00,6,0.100,18049.000,0.200,3811.000,0.300,2669.000,0.500,2997.000,1.000,984.000,5.000,0
"04/06/08","19:11:31",27820.000,"cc",28251.313,6.00,6,0.100,17942.000,0.200,3618.000,0.300,2524.000,0.500,2783.000,1.000,953.000,5.000,0
"04/06/08","19:11:37",27839.000,"cc",28257.779,6.00,6,0.100,18067.000,0.200,3755.000,0.300,2400.000,0.500,2661.000,1.000,956.000,5.000,0
"04/06/08","19:11:43",29068.000,"cc",28304.418,6.00,6,0.100,18297.000,0.200,3923.000,0.300,2804.000,0.500,3041.000,1.000,1003.000,5.000,0
"04/06/08","19:11:49",28238.000,"cc",28363.807,6.00,6,0.100,18386.000,0.200,3592.000,0.300,2530.000,0.500,2772.000,1.000,958.000,5.000,0
"04/06/08","19:11:55",27366.000,"cc",28368.682,6.00,6,0.100,17955.000,0.200,3514.000,0.300,2438.000,0.500,2560.000,1.000,899.000,5.000,0
"04/06/08","19:12:01",27852.000,"cc",28338.836,6.00,6,0.100,17870.000,0.200,3686.000,0.300,2523.000,0.500,2834.000,1.000,939.000,5.000,0
"04/06/08","19:12:07",27921.000,"cc",28302.428,6.00,6,0.100,18144.000,0.200,3595.000,0.300,2541.000,0.500,2742.000,1.000,899.000,5.000,0
"04/06/08","19:12:13",27450.000,"cc",28284.596,6.00,6,0.100,17865.000,0.200,3528.000,0.300,2464.000,0.500,2683.000,1.000,910.000,5.000,0
"04/06/08","19:12:19",27713.000,"cc",28385.307,6.00,6,0.100,18156.000,0.200,3485.000,0.300,2463.000,0.500,2722.000,1.000,887.000,5.000,0
"04/06/08","19:12:25",27828.000,"cc",28289.842,6.00,6,0.100,17941.000,0.200,3703.000,0.300,2500.000,0.500,2722.000,1.000,962.000,5.000,0
"04/06/08","19:12:31",28396.000,"cc",28279.781,6.00,6,0.100,18638.000,0.200,3672.000,0.300,2456.000,0.500,2724.000,1.000,906.000,5.000,0
"04/06/08","19:12:37",27733.000,"cc",28274.967,6.00,6,0.100,18165.000,0.200,3611.000,0.300,2429.000,0.500,2648.000,1.000,880.000,5.000,0
"04/06/08","19:12:43",28269.000,"cc",28367.293,6.00,6,0.100,18361.000,0.200,3678.000,0.300,2551.000,0.500,2756.000,1.000,923.000,5.000,0
"04/06/08","19:12:49",27646.000,"cc",28318.643,6.00,6,0.100,18020.000,0.200,3555.000,0.300,2525.000,0.500,2718.000,1.000,828.000,5.000,0
"04/06/08","19:12:55",27355.000,"cc",28307.926,6.00,6,0.100,17845.000,0.200,3620.000,0.300,2416.000,0.500,2585.000,1.000,889.000,5.000,0
"04/06/08","19:13:01",27574.000,"cc",28303.598,6.00,6,0.100,18068.000,0.200,3669.000,0.300,2371.000,0.500,2594.000,1.000,872.000,5.000,0
"04/06/08","19:13:07",27345.000,"cc",28344.971,6.00,6,0.100,17945.000,0.200,3515.000,0.300,2429.000,0.500,2583.000,1.000,873.000,5.000,0
"04/06/08","19:13:13",27641.000,"cc",28331.852,6.00,6,0.100,18232.000,0.200,3665.000,0.300,2348.000,0.500,2532.000,1.000,864.000,5.000,0
"04/06/08","19:13:19",27477.000,"cc",28319.799,6.00,6,0.100,18027.000,0.200,3630.000,0.300,2318.000,0.500,2609.000,1.000,893.000,5.000,0
"04/06/08","19:13:25",28303.000,"cc",28299.375,6.00,6,0.100,18293.000,0.200,3780.000,0.300,2515.000,0.500,2746.000,1.000,969.000,5.000,0
"04/06/08","19:13:31",27148.000,"cc",28297.703,6.00,6,0.100,17998.000,0.200,3516.000,0.300,2292.000,0.500,2528.000,1.000,814.000,5.000,0
"04/06/08","19:13:37",26912.000,"cc",28319.389,6.00,6,0.100,17829.000,0.200,3562.000,0.300,2291.000,0.500,2452.000,1.000,778.000,5.000,0
"04/06/08","19:13:43",27355.000,"cc",28381.484,6.00,6,0.100,18172.000,0.200,3552.000,0.300,2341.000,0.500,2485.000,1.000,805.000,5.000,0
"04/06/08","19:13:49",27547.000,"cc",28285.291,6.00,6,0.100,18316.000,0.200,3494.000,0.300,2271.000,0.500,2608.000,1.000,858.000,5.000,0
"04/06/08","19:13:55",27155.000,"cc",28313.775,6.00,6,0.100,17962.000,0.200,3539.000,0.300,2294.000,0.500,2506.000,1.000,854.000,5.000,0
"04/06/08","19:14:01",27494.000,"cc",28325.916,6.00,6,0.100,18036.000,0.200,3655.000,0.300,2377.000,0.500,2554.000,1.000,872.000,5.000,0
"04/06/08","19:14:07",28053.000,"cc",28331.025,6.00,6,0.100,18494.000,0.200,3685.000,0.300,2417.000,0.500,2559.000,1.000,898.000,5.000,0
"04/06/08","19:14:13",27688.000,"cc",28281.258,6.00,6,0.100,18239.000,0.200,3575.000,0.300,2403.000,0.500,2598.000,1.000,873.000,5.000,0
"04/06/08","19:14:19",28252.000,"cc",28270.604,6.00,6,0.100,18471.000,0.200,3678.000,0.300,2415.000,0.500,2774.000,1.000,914.000,5.000,0
"04/06/08","19:14:25",27915.000,"cc",28361.016,6.00,6,0.100,18371.000,0.200,3726.000,0.300,2410.000,0.500,2556.000,1.000,852.000,5.000,0
"04/06/08","19:14:31",27043.000,"cc",28258.816,6.00,6,0.100,18100.000,0.200,3468.000,0.300,2281.000,0.500,2352.000,1.000,842.000,5.000,0
"04/06/08","19:14:37",27593.000,"cc",28292.244,6.00,6,0.100,18098.000,0.200,3638.000,0.300,2357.000,0.500,2638.000,1.000,862.000,5.000,0
"04/06/08","19:14:43",27163.000,"cc",28324.842,6.00,6,0.100,18017.000,0.200,3537.000,0.300,2402.000,0.500,2425.000,1.000,782.000,5.000,0
"04/06/08","19:14:49",27131.000,"cc",28305.039,6.00,6,0.100,18041.000,0.200,3520.000,0.300,2313.000,0.500,2433.000,1.000,824.000,5.000,0
"04/06/08","19:14:55",28460.000,"cc",28310.514,6.00,6,0.100,18501.000,0.200,3837.000,0.300,2654.000,0.500,2622.000,1.000,846.000,5.000,0
"04/06/08","19:15:01",29014.000,"cc",28387.201,6.00,6,0.100,18647.000,0.200,3939.000,0.300,2671.000,0.500,2789.000,1.000,968.000,5.000,0
"04/06/08","19:15:07",28492.000,"cc",28328.705,6.00,6,0.100,18420.000,0.200,3946.000,0.300,2558.000,0.500,2691.000,1.000,877.000,5.000,0
"04/06/08","19:15:13",28444.000,"cc",28310.820,6.00,6,0.100,18339.000,0.200,3972.000,0.300,2591.000,0.500,2705.000,1.000,837.000,5.000,0
"04/06/08","19:15:19",28407.000,"cc",28341.234,6.00,6,0.100,18365.000,0.200,3983.000,0.300,2463.000,0.500,2724.000,1.000,872.000,5.000,0
"04/06/08","19:15:25",28355.000,"cc",28280.404,6.00,6,0.100,18298.000,0.200,3841.000,0.300,2550.000,0.500,2764.000,1.000,902.000,5.000,0
"04/06/08","19:15:31",27928.000,"cc",28330.961,6.00,6,0.100,18267.000,0.200,3793.000,0.300,2533.000,0.500,2489.000,1.000,846.000,5.000,0
"04/06/08","19:15:37",27493.000,"cc",28312.197,6.00,6,0.100,17995.000,0.200,3590.000,0.300,2449.000,0.500,2555.000,1.000,904.000,5.000,0
"04/06/08","19:15:43",26856.000,"cc",28298.545,6.00,6,0.100,17843.000,0.200,3525.000,0.300,2292.000,0.500,2413.000,1.000,783.000,5.000,0
"04/06/08","19:15:49",27251.000,"cc",28255.131,6.00,6,0.100,18013.000,0.200,3556.000,0.300,2304.000,0.500,2612.000,1.000,766.000,5.000,0
"04/06/08","19:15:55",26868.000,"cc",28302.125,6.00,6,0.100,17819.000,0.200,3524.000,0.300,2285.000,0.500,2433.000,1.000,807.000,5.000,0
"04/06/08","19:16:01",26928.000,"cc",28342.350,6.00,6,0.100,17693.000,0.200,3610.000,0.300,2284.000,0.500,2494.000,1.000,847.000,5.000,0
"04/06/08","19:16:07",27541.000,"cc",28352.256,6.00,6,0.100,18215.000,0.200,3649.000,0.300,2356.000,0.500,2515.000,1.000,806.000,5.000,0
"04/06/08","19:16:13",27158.000,"cc",28328.086,6.00,6,0.100,18070.000,0.200,3610.000,0.300,2283.000,0.500,2373.000,1.000,822.000,5.000,0
"04/06/08","19:16:19",27748.000,"cc",28361.162,6.00,6,0.100,18209.000,0.200,3656.000,0.300,2390.000,0.500,2612.000,1.000,880.000,5.000,1.000